TimePDT,TemperatureF,Dew PointF,Humidity,Sea Level PressureIn,VisibilityMPH,Wind Direction,Wind SpeedMPH,Gust SpeedMPH,PrecipitationIn,Events,Conditions,WindDirDegrees,DateUTC
12:15 AM,32.0,26.6,80,30.11,10.0,SE,4.6,-,N/A,,Clear,130,2013-06-20 07:15:00
12:35 AM,32.0,30.2,93,30.11,10.0,Calm,Calm,-,N/A,,Clear,0,2013-06-20 07:35:00
12:55 AM,33.8,30.2,87,30.11,10.0,SE,3.5,-,N/A,,Clear,140,2013-06-20 07:55:00
1:15 AM,32.0,26.6,80,30.11,10.0,Calm,Calm,-,N/A,,Clear,0,2013-06-20 08:15:00
1:35 AM,30.2,26.6,86,30.11,10.0,Calm,Calm,-,N/A,,Clear,0,2013-06-20 08:35:00
1:55 AM,30.2,26.6,86,30.11,10.0,Calm,Calm,-,N/A,,Clear,0,2013-06-20 08:55:00
2:15 AM,28.4,24.8,86,30.11,10.0,NNW,5.8,-,N/A,,Clear,340,2013-06-20 09:15:00
2:35 AM,28.4,24.8,86,30.10,10.0,North,8.1,-,N/A,,Clear,350,2013-06-20 09:35:00
2:55 AM,28.4,26.6,93,30.09,10.0,North,5.8,-,N/A,,Clear,350,2013-06-20 09:55:00
3:15 AM,28.4,24.8,86,30.09,10.0,NW,5.8,-,N/A,,Clear,320,2013-06-20 10:15:00
3:35 AM,28.4,26.6,93,30.10,10.0,NNW,5.8,-,N/A,,Clear,340,2013-06-20 10:35:00
3:55 AM,26.6,26.6,100,30.09,10.0,NNW,5.8,-,N/A,,Clear,340,2013-06-20 10:55:00
4:15 AM,26.6,23.0,86,30.09,10.0,North,6.9,-,N/A,,Clear,350,2013-06-20 11:15:00
4:35 AM,24.8,21.2,86,30.09,10.0,NW,6.9,-,N/A,,Clear,320,2013-06-20 11:35:00
4:55 AM,24.8,23.0,93,30.09,10.0,NNW,6.9,-,N/A,,Clear,340,2013-06-20 11:55:00
5:15 AM,24.8,21.2,86,30.09,10.0,North,5.8,-,N/A,,Clear,360,2013-06-20 12:15:00
5:35 AM,26.6,26.6,100,30.09,10.0,North,4.6,-,N/A,,Clear,350,2013-06-20 12:35:00
5:55 AM,26.6,23.0,86,30.09,10.0,NNW,5.8,-,N/A,,Clear,330,2013-06-20 12:55:00
6:15 AM,28.4,26.6,93,30.09,10.0,WNW,4.6,-,N/A,,Clear,290,2013-06-20 13:15:00
6:35 AM,30.2,28.4,93,30.09,10.0,Calm,Calm,-,N/A,,Clear,0,2013-06-20 13:35:00
6:55 AM,35.6,30.2,81,30.09,10.0,Calm,Calm,-,N/A,,Clear,0,2013-06-20 13:55:00
7:15 AM,37.4,30.2,75,30.09,10.0,Calm,Calm,-,N/A,,Clear,0,2013-06-20 14:15:00
7:35 AM,37.4,32.0,81,30.09,10.0,Calm,Calm,-,N/A,,Clear,0,2013-06-20 14:35:00
7:55 AM,41.0,33.8,76,30.09,10.0,Calm,Calm,-,N/A,,Clear,0,2013-06-20 14:55:00
8:15 AM,44.6,33.8,66,30.09,10.0,Calm,Calm,-,N/A,,Clear,0,2013-06-20 15:15:00
8:35 AM,44.6,33.8,66,30.09,10.0,Calm,Calm,-,N/A,,Clear,0,2013-06-20 15:35:00
8:55 AM,48.2,35.6,62,30.08,10.0,South,5.8,-,N/A,,Clear,180,2013-06-20 15:55:00
9:15 AM,48.2,33.8,58,30.08,10.0,SW,4.6,-,N/A,,Clear,230,2013-06-20 16:15:00
9:35 AM,50.0,33.8,54,30.08,10.0,South,5.8,-,N/A,,Scattered Clouds,180,2013-06-20 16:35:00
9:55 AM,51.8,33.8,50,30.07,10.0,South,4.6,-,N/A,,Scattered Clouds,170,2013-06-20 16:55:00
10:15 AM,51.8,33.8,50,30.07,10.0,South,6.9,-,N/A,,Clear,190,2013-06-20 17:15:00
10:35 AM,53.6,33.8,47,30.07,10.0,South,6.9,-,N/A,,Scattered Clouds,170,2013-06-20 17:35:00
10:55 AM,53.6,33.8,47,30.07,10.0,SSE,6.9,-,N/A,,Mostly Cloudy,150,2013-06-20 17:55:00
11:15 AM,55.4,33.8,44,30.07,10.0,South,8.1,-,N/A,,Partly Cloudy,190,2013-06-20 18:15:00
11:35 AM,57.2,33.8,41,30.06,10.0,South,9.2,-,N/A,,Clear,180,2013-06-20 18:35:00
11:55 AM,57.2,33.8,41,30.06,10.0,WSW,9.2,17.3,N/A,,Scattered Clouds,240,2013-06-20 18:55:00
12:15 PM,57.2,33.8,41,30.06,10.0,South,6.9,-,N/A,,Mostly Cloudy,180,2013-06-20 19:15:00
12:35 PM,57.2,32.0,38,30.05,10.0,SSE,6.9,-,N/A,,Scattered Clouds,150,2013-06-20 19:35:00
12:55 PM,59.0,33.8,39,30.05,10.0,SSE,5.8,-,N/A,,Mostly Cloudy,160,2013-06-20 19:55:00
1:15 PM,60.8,30.2,31,30.05,10.0,West,6.9,16.1,N/A,,Mostly Cloudy,260,2013-06-20 20:15:00
1:35 PM,59.0,30.2,34,30.04,10.0,South,6.9,-,N/A,,Overcast,190,2013-06-20 20:35:00
1:55 PM,60.8,33.8,36,30.04,10.0,South,8.1,-,N/A,,Overcast,190,2013-06-20 20:55:00
2:15 PM,62.6,30.2,30,30.04,10.0,West,13.8,18.4,N/A,,Overcast,280,2013-06-20 21:15:00
2:35 PM,62.6,30.2,30,30.04,10.0,West,12.7,16.1,N/A,,Overcast,280,2013-06-20 21:35:00
2:55 PM,60.8,30.2,31,30.04,10.0,West,5.8,-,N/A,,Overcast,260,2013-06-20 21:55:00
3:15 PM,60.8,30.2,31,30.03,10.0,SW,8.1,-,N/A,,Overcast,230,2013-06-20 22:15:00
3:35 PM,60.8,30.2,31,30.03,10.0,West,8.1,-,N/A,,Overcast,260,2013-06-20 22:35:00
3:55 PM,60.8,30.2,31,30.03,10.0,West,9.2,-,N/A,,Mostly Cloudy,270,2013-06-20 22:55:00
4:15 PM,62.6,32.0,32,30.03,10.0,West,12.7,-,N/A,,Mostly Cloudy,280,2013-06-20 23:15:00
4:35 PM,60.8,30.2,31,30.04,10.0,West,16.1,-,N/A,,Partly Cloudy,280,2013-06-20 23:35:00
4:55 PM,57.2,28.4,33,30.06,10.0,West,34.5,38.0,N/A,,Mostly Cloudy,260,2013-06-20 23:55:00
5:15 PM,51.8,35.6,54,30.06,10.0,SE,6.9,25.3,N/A,,Mostly Cloudy,130,2013-06-21 00:15:00
5:35 PM,53.6,32.0,44,30.07,10.0,WNW,5.8,-,N/A,,Partly Cloudy,290,2013-06-21 00:35:00
5:55 PM,55.4,33.8,44,30.08,10.0,NW,24.2,28.8,N/A,,Clear,310,2013-06-21 00:55:00
6:15 PM,53.6,30.2,41,30.06,10.0,NW,11.5,19.6,N/A,,Clear,320,2013-06-21 01:15:00
6:35 PM,57.2,26.6,31,30.07,10.0,NW,13.8,-,N/A,,Partly Cloudy,310,2013-06-21 01:35:00
6:55 PM,55.4,30.2,38,30.07,10.0,NNW,11.5,-,N/A,,Mostly Cloudy,330,2013-06-21 01:55:00
7:15 PM,57.2,30.2,36,30.08,10.0,NW,6.9,-,N/A,,Overcast,320,2013-06-21 02:15:00
7:35 PM,53.6,32.0,44,30.09,10.0,NNW,4.6,-,N/A,,Scattered Clouds,330,2013-06-21 02:35:00
7:55 PM,53.6,32.0,44,30.09,10.0,Calm,Calm,-,N/A,,Clear,0,2013-06-21 02:55:00
8:15 PM,51.8,33.8,50,30.09,10.0,Calm,Calm,-,N/A,,Clear,0,2013-06-21 03:15:00
8:35 PM,53.6,33.8,47,30.09,10.0,NW,4.6,-,N/A,,Clear,310,2013-06-21 03:35:00
8:55 PM,46.4,33.8,62,30.10,10.0,North,6.9,-,N/A,,Clear,10,2013-06-21 03:55:00
9:15 PM,44.6,33.8,66,30.10,10.0,ENE,3.5,-,N/A,,Clear,60,2013-06-21 04:15:00
9:35 PM,42.8,30.2,61,30.11,10.0,North,3.5,-,N/A,,Clear,10,2013-06-21 04:35:00
9:55 PM,37.4,28.4,70,30.12,10.0,NNW,5.8,-,N/A,,Clear,330,2013-06-21 04:55:00
10:15 PM,39.2,30.2,70,30.12,10.0,Calm,Calm,-,N/A,,Clear,0,2013-06-21 05:15:00
10:35 PM,39.2,33.8,81,30.12,10.0,WNW,4.6,-,N/A,,Clear,300,2013-06-21 05:35:00
10:55 PM,35.6,30.2,81,30.12,10.0,NNW,9.2,-,N/A,,Clear,330,2013-06-21 05:55:00
11:15 PM,37.4,30.2,75,30.12,10.0,NW,6.9,-,N/A,,Clear,320,2013-06-21 06:15:00
11:35 PM,35.6,30.2,81,30.12,10.0,NW,4.6,-,N/A,,Clear,320,2013-06-21 06:35:00
11:55 PM,35.6,30.2,81,30.12,10.0,WNW,3.5,-,N/A,,Clear,300,2013-06-21 06:55:00